Date,TemperatureHighF,TemperatureAvgF,TemperatureLowF,DewpointHighF,DewpointAvgF,DewpointLowF,HumidityHigh,HumidityAvg,HumidityLow,PressureMaxIn,PressureMinIn,WindSpeedMaxMPH,WindSpeedAvgMPH,GustSpeedMaxMPH,PrecipitationSumIn
2013-8-1,88.2,74.2,64.7,68.9,65.3,60.8,93,76,40,30.05,29.81,5,1,6,0.17
2013-8-2,85.3,74.8,67.1,70.6,66.5,60.6,92,76,60,29.97,29.79,3,0,5,0.00
2013-8-3,78.5,70.6,63.7,62.9,59.9,58.4,84,70,54,30.14,29.97,1,0,2,0.00
2013-8-4,78.2,71.0,61.7,66.6,61.1,55.6,85,71,59,30.15,29.98,2,0,3,0.00
2013-8-5,86.1,75.5,68.8,74.5,70.4,65.2,93,85,67,29.99,29.78,3,0,4,0.00
2013-8-6,90.7,79.2,69.1,74.3,71.1,64.6,94,78,55,29.89,29.73,3,1,6,0.00
2013-8-7,86.5,77.1,69.9,74.2,66.0,59.3,92,70,45,29.95,29.76,2,0,3,0.00
2013-8-8,77.3,71.0,65.6,66.7,63.3,60.6,84,77,67,29.98,29.90,0,0,1,0.00
2013-8-9,80.5,72.5,64.8,68.6,63.9,59.5,94,76,57,30.10,29.97,1,0,2,0.00
2013-8-10,84.5,71.7,60.7,63.9,60.5,57.3,89,70,47,30.17,30.04,2,1,5,0.00
2013-8-11,87.9,76.7,66.9,69.7,65.6,60.4,83,69,51,30.08,29.93,3,1,6,0.00
2013-8-12,86.7,76.2,69.7,69.7,65.6,60.5,89,71,42,30.02,29.93,1,0,2,0.00
2013-8-13,80.7,70.8,63.4,62.2,59.0,56.1,85,67,47,30.13,30.02,1,0,3,0.00
2013-8-14,76.1,68.2,59.7,61.2,57.9,54.5,83,70,55,30.17,30.05,2,0,5,0.01
2013-8-15,65.2,62.1,59.3,60.2,58.7,57.6,94,89,81,30.09,30.02,2,1,4,1.26
2013-8-16,74.5,67.1,61.2,60.3,58.6,57.3,90,75,58,30.16,30.08,2,0,4,0.00
2013-8-17,80.0,69.9,62.9,60.6,58.2,56.4,86,68,48,30.17,30.08,3,0,4,0.00
2013-8-18,81.7,70.5,60.6,63.0,59.7,56.6,87,70,48,30.13,30.01,3,1,6,0.00
2013-8-19,86.5,75.0,65.0,70.3,65.7,61.0,87,74,57,30.04,29.89,4,1,10,0.00
2013-8-20,90.4,79.3,69.7,71.8,68.9,66.0,89,72,52,29.93,29.85,4,2,7,0.00
2013-8-21,93.6,80.7,70.5,73.4,69.9,66.2,87,71,50,29.95,29.87,3,2,5,0.00
2013-8-22,84.0,77.0,71.5,71.2,68.5,65.6,83,75,61,30.05,29.90,2,0,4,0.00
2013-8-23,90.9,79.4,70.1,73.8,69.4,66.7,90,73,49,30.03,29.92,3,1,6,0.00
2013-8-24,92.3,81.6,74.5,75.8,71.4,68.4,83,72,55,30.01,29.93,4,2,7,0.00
2013-8-25,96.7,83.9,73.2,75.6,72.4,69.1,88,70,47,30.07,29.97,4,2,8,0.00
2013-8-26,97.2,84.8,73.8,74.0,71.4,69.2,86,66,45,30.02,29.88,4,2,9,0.00
2013-8-27,97.6,85.0,75.0,72.9,69.8,66.7,78,62,43,29.90,29.82,4,2,5,0.00
2013-8-28,97.1,82.1,70.8,72.0,67.0,64.1,81,63,35,29.93,29.86,2,0,4,0.00
2013-8-29,97.5,84.0,73.5,75.5,72.0,68.0,88,69,43,29.94,29.83,3,1,5,0.00
2013-8-30,98.8,84.4,74.8,78.8,72.3,68.6,84,69,39,29.84,29.75,1,0,2,0.00
2013-8-31,94.2,80.9,72.6,74.9,71.5,68.2,89,75,48,29.83,29.71,1,0,4,0.00